РПИ Туркменабат

Руководство

Evgeny Vygornitsky*

Куратор
Инструкторы РПИ
Evgeny Vygornitsky (Supervisor)
Входит в состав
Центральная Азия

Диспетчеры РПИ

Диспетчер Рейтинг Допуски *

Аэропорты РПИ

ICAO Город Название Погода
UTAV Туркменабад Туркменабат UTAV 250700Z 31012KT 290V350 9999 FEW050CB BKN100 26/08 Q1014 R31/CLRD70 NOSIG